Hourly Data Report for May 08, 2018

DRYDEN REGIONAL
ONTARIO
Current Station Operator: NAVCAN

49°49'39.000" N
92°44'39.000" W
412.70 m
6032125
71527
YHD

Download Data

Hourly Data (May 2018)
Hourly Data Report for May 8, 2018
TIME
LST
Temp Definition
°C
Dew Point Definition
°C
Rel Hum Definition
%
Precip. Amount Definition
mm

Wind Dir Definition
10's deg

Wind Spd Definition
km/h
Visibility Definition
km
Stn Press Definition
kPa
Hmdx Definition


Wind Chill Definition


Weather Definition


00:00 14.8 0.2 37 0.0 4 24 16.1 96.63     LegendNANA
01:00 12.9 1.9 47 0.0 4 28 16.1 96.70     LegendNANA
02:00 11.1 2.7 56 0.0 5 32 16.1 96.84     LegendNANA
03:00 8.7 1.5 61 0.0 6 22 16.1 96.95     LegendNANA
04:00 7.6 -1.2 54 0.0 6 22 16.1 97.04     LegendNANA
05:00 6.4 -1.8 56 0.0 5 21 16.1 97.09     LegendNANA
06:00 6.5 -2.3 53 0.0 5 26 16.1 97.20     LegendNANA
07:00 7.2 -2.7 49 0.0 7 26 16.1 97.28     LegendNANA
08:00 7.4 -2.5 50 0.0 7 24 16.1 97.27     LegendNANA
09:00 8.2 -3.3 44 0.0 7 26 16.1 97.26     LegendNANA
10:00 8.7 -3.0 44 0.0 7 21 16.1 97.30     LegendNANA
11:00 9.5 -2.6 43 0.0 6 15 16.1 97.26     LegendNANA
12:00 10.0 -3.2 39 0.0 7 24 16.1 97.19     LegendNANA
13:00 10.6 -3.8 36 0.0 8 21 16.1 97.13     LegendNANA
14:00 10.8 -2.9 38 0.0 8 21 16.1 97.10     LegendNANA
15:00 11.0 -2.0 40 0.0 8 11 16.1 97.05     LegendNANA
16:00 11.5 -2.3 38 0.0 10 17 16.1 96.99     LegendNANA
17:00 11.5 -1.5 40 0.0 11 9 16.1 96.96     LegendNANA
18:00 11.3 -1.6 41 0.0 8 11 16.1 96.90     LegendNANA
19:00 9.9 1.1 54 0.0 17 18 16.1 96.87     LegendNANA
20:00 8.6 2.2 64 0.0 12 11 16.1 96.80     LegendNANA
21:00 8.1 2.4 67 0.0 12 11 16.1 96.75     LegendNANA
22:00 7.3 2.8 73 0.0 12 9 16.1 96.68     LegendNANA
23:00 6.6 3.1 78 0.0 12 13 16.1 96.62     LegendNANA

Notes on Data Quality.

Legend

  • E = Estimated
  • M = Missing
  • NA = Not Available*
  • [empty] = Indicates an unobserved value
Date modified: